When you browse on this site, cookies collect data to enhance your experience and personalize the content and advertising you see.
Visit our Privacy Policy to learn more. By continuing to use the site, you agree to this use of cookies and data.
  • In United Kingdom
  • List of Countries
  • For 7 days
  • Water Temperature
  • Satellite Maps
  • Weather Map
  • Weather Widgets
  • user-avatar
    Login

    Hourly Weather Abingdon

    Today, 19 July, Friday

    Time Temperature Precipitation Wind Pressure Humidity
    00:00 +12°C° 0 mm 3 mps 754 mmHg 93%
    01:00 +13°C° 0 mm 2 mps 753 mmHg 94%
    02:00 +13°C° 0 mm 2 mps 753 mmHg 94%
    03:00 +13°C° 0 mm 2 mps 753 mmHg 95%
    04:00 +13°C° 0 mm 2 mps 753 mmHg 92%
    05:00 +13°C° 0 mm 3 mps 753 mmHg 89%
    06:00 +14°C° 0 mm 3 mps 753 mmHg 87%
    07:00 +14°C° 0.4 mm 4 mps 753 mmHg 88%
    08:00 +14°C° 0.4 mm 4 mps 753 mmHg 89%
    09:00 +15°C° 0.4 mm 5 mps 753 mmHg 91%
    10:00 +15°C° 0.8 mm 6 mps 752 mmHg 91%
    11:00 +16°C° 0.8 mm 6 mps 752 mmHg 91%
    12:00 +16°C° 0.8 mm 7 mps 752 mmHg 91%
    13:00 +17°C° 0.1 mm 7 mps 752 mmHg 90%
    14:00 +18°C° 0.1 mm 7 mps 751 mmHg 88%
    15:00 +20°C° 0.1 mm 7 mps 751 mmHg 86%
    16:00 +20°C° 0.1 mm 7 mps 751 mmHg 86%
    17:00 +20°C° 0.1 mm 7 mps 751 mmHg 85%
    18:00 +20°C° 0.1 mm 7 mps 751 mmHg 85%
    19:00 +19°C° 0.4 mm 6 mps 751 mmHg 88%
    20:00 +17°C° 0.4 mm 6 mps 751 mmHg 91%
    21:00 +17°C° 0.4 mm 6 mps 751 mmHg 94%
    22:00 +17°C° 0.4 mm 5 mps 751 mmHg 94%
    23:00 +16°C° 0.4 mm 5 mps 751 mmHg 95%

    Tomorrow, 20 July, Saturday

    Time Temperature Precipitation Wind Pressure Humidity
    00:00 +16°C° 0.4 mm 5 mps 750 mmHg 95%
    01:00 +16°C° 0.1 mm 5 mps 750 mmHg 95%
    02:00 +16°C° 0.1 mm 5 mps 750 mmHg 95%
    03:00 +17°C° 0.1 mm 4 mps 750 mmHg 95%
    04:00 +17°C° 0 mm 4 mps 750 mmHg 95%
    05:00 +17°C° 0 mm 4 mps 749 mmHg 94%
    06:00 +17°C° 0 mm 4 mps 749 mmHg 93%
    07:00 +17°C° 0 mm 5 mps 750 mmHg 88%
    08:00 +19°C° 0 mm 5 mps 750 mmHg 82%
    09:00 +20°C° 0 mm 6 mps 750 mmHg 77%
    10:00 +21°C° 0.4 mm 6 mps 750 mmHg 74%
    11:00 +22°C° 0.4 mm 6 mps 751 mmHg 71%
    12:00 +23°C° 0.4 mm 6 mps 751 mmHg 69%
    13:00 +22°C° 1.2 mm 6 mps 751 mmHg 71%
    14:00 +22°C° 1.2 mm 6 mps 751 mmHg 74%
    15:00 +22°C° 1.2 mm 6 mps 751 mmHg 77%
    16:00 +21°C° 0.6 mm 5 mps 751 mmHg 78%
    17:00 +21°C° 0.6 mm 5 mps 752 mmHg 80%
    18:00 +21°C° 0.6 mm 4 mps 752 mmHg 81%
    19:00 +19°C° 0.3 mm 3 mps 753 mmHg 85%
    20:00 +18°C° 0.3 mm 3 mps 753 mmHg 89%
    21:00 +16°C° 0.3 mm 3 mps 754 mmHg 93%
    22:00 +16°C° 0 mm 3 mps 754 mmHg 92%
    23:00 +15°C° 0 mm 2 mps 755 mmHg 92%

    Day after tomorrow, 21 July, Sunday

    Time Temperature Precipitation Wind Pressure Humidity
    00:00 +14°C° 0 mm 2 mps 755 mmHg 91%
    01:00 +14°C° 0 mm 2 mps 755 mmHg 92%
    02:00 +13°C° 0 mm 2 mps 756 mmHg 92%
    03:00 +13°C° 0 mm 1 mps 756 mmHg 92%
    04:00 +13°C° 0 mm 1 mps 756 mmHg 90%
    05:00 +14°C° 0 mm 1 mps 757 mmHg 88%
    06:00 +15°C° 0 mm 1 mps 757 mmHg 87%
    07:00 +16°C° 0 mm 1 mps 758 mmHg 81%
    08:00 +18°C° 0 mm 2 mps 758 mmHg 76%
    09:00 +19°C° 0 mm 2 mps 759 mmHg 70%
    10:00 +20°C° 0 mm 3 mps 759 mmHg 68%
    11:00 +21°C° 0 mm 3 mps 759 mmHg 66%
    12:00 +22°C° 0 mm 4 mps 760 mmHg 63%
    13:00 +23°C° 0 mm 4 mps 760 mmHg 63%
    14:00 +23°C° 0 mm 4 mps 760 mmHg 63%
    15:00 +23°C° 0 mm 4 mps 760 mmHg 63%
    16:00 +23°C° 0 mm 4 mps 760 mmHg 66%
    17:00 +22°C° 0 mm 3 mps 760 mmHg 70%
    18:00 +22°C° 0 mm 3 mps 760 mmHg 73%
    19:00 +20°C° 0 mm 2 mps 760 mmHg 79%
    20:00 +19°C° 0 mm 2 mps 761 mmHg 85%
    21:00 +17°C° 0 mm 2 mps 761 mmHg 90%
    22:00 +16°C° 0 mm 2 mps 761 mmHg 91%
    23:00 +16°C° 0 mm 2 mps 761 mmHg 93%

    22 July, Monday

    Time Temperature Precipitation Wind Pressure Humidity
    00:00 +15°C° 0 mm 2 mps 761 mmHg 94%
    01:00 +15°C° 0 mm 2 mps 761 mmHg 94%
    02:00 +14°C° 0 mm 2 mps 761 mmHg 95%
    03:00 +13°C° 0 mm 3 mps 761 mmHg 95%
    04:00 +14°C° 0 mm 3 mps 761 mmHg 93%
    05:00 +14°C° 0 mm 3 mps 761 mmHg 90%
    06:00 +16°C° 0 mm 3 mps 761 mmHg 88%
    07:00 +17°C° 0 mm 4 mps 761 mmHg 83%
    08:00 +19°C° 0 mm 4 mps 761 mmHg 78%
    09:00 +20°C° 0 mm 4 mps 761 mmHg 73%
    10:00 +22°C° 0 mm 4 mps 761 mmHg 69%
    11:00 +23°C° 0 mm 4 mps 761 mmHg 66%
    12:00 +25°C° 0 mm 4 mps 761 mmHg 62%
    13:00 +25°C° 0 mm 4 mps 761 mmHg 61%
    14:00 +26°C° 0 mm 4 mps 761 mmHg 60%
    15:00 +26°C° 0 mm 4 mps 761 mmHg 59%
    16:00 +25°C° 0 mm 3 mps 760 mmHg 63%
    17:00 +25°C° 0 mm 3 mps 760 mmHg 67%
    18:00 +24°C° 0 mm 2 mps 760 mmHg 71%
    19:00 +21°C° 0 mm 2 mps 760 mmHg 75%
    20:00 +20°C° 0 mm 2 mps 760 mmHg 79%
    21:00 +18°C° 0 mm 2 mps 760 mmHg 83%
    22:00 +19°C° 0 mm 1 mps 760 mmHg 82%
    23:00 +18°C° 0 mm 1 mps 760 mmHg 80%

    23 July, Tuesday

    Time Temperature Precipitation Wind Pressure Humidity
    00:00 +18°C° 0 mm 1 mps 759 mmHg 79%
    01:00 +18°C° 0 mm 1 mps 759 mmHg 76%
    02:00 +16°C° 0 mm 1 mps 759 mmHg 73%
    03:00 +16°C° 0 mm 1 mps 758 mmHg 70%
    04:00 +17°C° 0 mm 2 mps 758 mmHg 73%
    05:00 +18°C° 0 mm 2 mps 758 mmHg 76%
    06:00 +19°C° 0 mm 2 mps 757 mmHg 78%
    07:00 +21°C° 0 mm 3 mps 757 mmHg 73%
    08:00 +23°C° 0 mm 4 mps 757 mmHg 69%
    09:00 +26°C° 0 mm 5 mps 757 mmHg 64%
    10:00 +28°C° 0 mm 5 mps 756 mmHg 61%
    11:00 +29°C° 0 mm 5 mps 756 mmHg 57%
    12:00 +30°C° 0 mm 6 mps 756 mmHg 54%
    13:00 +32°C° 0 mm 6 mps 755 mmHg 54%
    14:00 +32°C° 0 mm 6 mps 755 mmHg 54%
    15:00 +32°C° 0 mm 5 mps 755 mmHg 54%
    16:00 +30°C° 0 mm 4 mps 754 mmHg 59%
    17:00 +30°C° 0 mm 4 mps 754 mmHg 64%
    18:00 +29°C° 0 mm 3 mps 753 mmHg 70%
    19:00 +28°C° 0.1 mm 3 mps 753 mmHg 72%
    20:00 +27°C° 0.1 mm 4 mps 753 mmHg 74%
    21:00 +25°C° 0.1 mm 4 mps 753 mmHg 77%
    22:00 +25°C° 0.7 mm 3 mps 753 mmHg 81%
    23:00 +24°C° 0.7 mm 3 mps 753 mmHg 86%

    24 July, Wednesday

    Time Temperature Precipitation Wind Pressure Humidity
    00:00 +23°C° 0.7 mm 2 mps 753 mmHg 91%
    01:00 +21°C° 0 mm 2 mps 753 mmHg 91%
    02:00 +21°C° 0 mm 2 mps 752 mmHg 92%
    03:00 +21°C° 0 mm 1 mps 752 mmHg 93%
    04:00 +21°C° 0 mm 2 mps 752 mmHg 93%
    05:00 +21°C° 0 mm 2 mps 752 mmHg 92%
    06:00 +21°C° 0 mm 2 mps 752 mmHg 92%
    07:00 +24°C° 0 mm 3 mps 752 mmHg 87%
    08:00 +25°C° 0 mm 3 mps 752 mmHg 82%
    09:00 +27°C° 0 mm 4 mps 752 mmHg 77%
    10:00 +26°C° 0.1 mm 3 mps 752 mmHg 78%
    11:00 +25°C° 0.1 mm 2 mps 752 mmHg 79%
    12:00 +24°C° 0.1 mm 1 mps 752 mmHg 80%
    13:00 +25°C° 0 mm 1 mps 751 mmHg 79%
    14:00 +25°C° 0 mm 2 mps 751 mmHg 77%
    15:00 +25°C° 0 mm 2 mps 751 mmHg 76%
    16:00 +25°C° 0 mm 2 mps 750 mmHg 77%
    17:00 +25°C° 0 mm 2 mps 750 mmHg 78%
    18:00 +25°C° 0 mm 2 mps 750 mmHg 79%
    19:00 +24°C° 0.1 mm 2 mps 750 mmHg 82%
    20:00 +23°C° 0.1 mm 2 mps 749 mmHg 85%
    21:00 +21°C° 0.1 mm 3 mps 749 mmHg 87%
    22:00 +20°C° 1.1 mm 2 mps 749 mmHg 89%
    23:00 +20°C° 1.1 mm 2 mps 748 mmHg 90%
    Show more